Location: Boissi�res
(45.2500°N, 2.3667°E)
Time: 15:44:52
(UTC+00:00)

ERBS - Pass Details

Date: 03 March 2021
Orbit: 407 x 412 km, 57.0° (Epoch: 18 April)

Event Time Altitude Azimuth Distance (km) Brightness Sun altitude
Rises 18:52:03 0° 265° (W) 2,354 7.9 -13.4°
Reaches altitude 10° 18:54:26 10° 281° (W) 1,492 6.5 -13.8°
Maximum altitude 18:57:08 22° 335° (NNW) 962 4.4 -14.2°
Drops below altitude 10° 18:59:49 10° 28° (NNE) 1,494 4.8 -14.7°
Enters shadow 19:00:02 - 31° (NNE) 1,565 4.9 -14.8°
